{"data":{"norad_id":60037,"epoch":"2026-09-21T03:32:02.227200Z","epoch_age_seconds":122275,"freshness":"FRESH","line1":"1 60037U 24111X   26264.14724800 -.00002828  00000+0 -72652-4 0  9998","line2":"2 60037  53.1604 246.6983 0001104  92.0046 268.1083 15.34371297128902","mean_motion":15.34371297,"eccentricity":0.0001104,"inclination_deg":53.1604,"raan_deg":246.6983,"arg_perigee_deg":92.0046,"mean_anomaly_deg":268.1083,"bstar":-7.2652e-5,"rev_number":12890,"period_min":93.849513661751,"perigee_km":462.03331472086,"apogee_km":463.54379108294,"semimajor_km":6840.9255529019,"source":"CELESTRAK","updated_at":"2026-09-22T09:00:49.141320Z"}}